Location: Chilton Park
(37.7711°N, 100.0276°W)
Time: 14:18:58
(UTC+00:00)

IRAS Rocket - Pass Details

Date: 08 December 2021
Orbit: 847 x 877 km, 100.1° (Epoch: 19 January)

Event Time Altitude Azimuth Distance (km) Brightness Sun altitude
Rises 12:55:16 0° 172° (S) 3,413 7.8 -9.4°
Reaches altitude 10° 12:57:40 10° 176° (S) 2,477 7.0 -9.0°
Maximum altitude 13:03:06 63° 257° (WSW) 950 4.3 -8.0°
Drops below altitude 10° 13:08:32 10° 338° (NNW) 2,480 6.2 -7.0°
Sets 13:10:56 0° 342° (NNW) 3,418 7.0 -6.6°
